Red Bluff, CA

5:36 AM PST on December 06, 2019 (GMT -0800)
Red Bluff Municipal

Weather History for KRBL - October, 2019

Change the Weather History Date:

Wednesday, October 16, 2019

  Actual Average Record
Temperature  
Mean Temperature 60 °F -  
Max Temperature 77 °F 79 °F 100 °F (1988)
Min Temperature 44 °F 50 °F 39 °F (1946)
Degree Days  
Heating Degree Days 4    
Growing Degree Days 10 (Base 50)    
Moisture  
Dew Point 37 °F    
Average Humidity 42    
Maximum Humidity 72    
Minimum Humidity 16    
Precipitation  
Precipitation 0.01 in - - ()
Sea Level Pressure  
Sea Level Pressure 29.91 in    
Wind  
Wind Speed 6 mph (West)    
Max Wind Speed 12 mph    
Max Gust Speed -    
Visibility 10 miles    
Events Rain    
Averages and records for this station are not official NWS values.
T = Trace of Precipitation, MM = Missing Value Source: NWS Daily Summary

Daily Weather History Graph

Daily Weather History Graph

Search for Another Location

Airport or City:

Astronomy

Oct. 16, 2019 Rise Set
Actual Time 7:20 AM PDT 6:27 PM PDT
Civil Twilight 6:53 AM PDT 6:55 PM PDT
Nautical Twilight 6:21 AM PDT 7:26 PM PDT
Astronomical Twilight 5:50 AM PDT 7:58 PM PDT
Moon 8:24 PM PDT (10/16) 9:56 AM PDT (10/16)
Length of Visible Light 12h 02m
Length of Day
11h 07m
Waning Gibbous, 92% of the Moon is Illuminated
Oct 16
Waning Gibbous
Oct 21
Last Quarter
Oct 27
New
Nov 4
First Quarter
Nov 12
Full

Hourly Weather History & Observations

Time (PDT) Temp. Windchill Dew Point Humidity Pressure Visibility Wind Dir Wind Speed Gust Speed Precip Events Conditions
12:54 AM 50.0 °F - 30.9 °F 48% 30.01 in 10.0 mi NW 4.6 mph - N/A   Clear
1:54 AM 48.9 °F - 30.9 °F 50% 30.01 in 10.0 mi WNW 5.8 mph - N/A   Clear
2:54 AM 46.0 °F 43.1 °F 30.9 °F 56% 30.01 in 10.0 mi NW 5.8 mph - N/A   Clear
3:54 AM 45.0 °F 41.8 °F 30.9 °F 58% 30.00 in 10.0 mi WNW 5.8 mph - N/A   Clear
4:54 AM 46.0 °F 42.5 °F 30.9 °F 56% 29.99 in 10.0 mi WNW 6.9 mph - N/A   Clear
5:54 AM 46.0 °F 42.5 °F 30.9 °F 56% 29.99 in 10.0 mi NW 6.9 mph - N/A   Clear
6:54 AM 46.0 °F 42.5 °F 30.9 °F 56% 29.99 in 10.0 mi NW 6.9 mph - N/A   Clear
7:54 AM 46.9 °F - 30.9 °F 54% 30.00 in 10.0 mi NNW 4.6 mph - N/A   Clear
8:54 AM 53.1 °F - 33.1 °F 47% 30.00 in 10.0 mi NNW 5.8 mph - N/A   Clear
9:54 AM 57.9 °F - 34.0 °F 41% 29.99 in 10.0 mi North 5.8 mph - N/A   Clear
10:54 AM 64.9 °F - 34.0 °F 32% 29.99 in 10.0 mi NNE 3.5 mph - N/A   Clear
11:54 AM 69.1 °F - 33.1 °F 26% 29.98 in 10.0 mi Calm Calm - N/A   Clear
12:54 PM 72.0 °F - 35.1 °F 26% 29.94 in 10.0 mi Variable 3.5 mph - N/A   Clear
1:54 PM 73.9 °F - 34.0 °F 23% 29.90 in 10.0 mi South 11.5 mph - N/A   Clear
2:54 PM 75.0 °F - 36.0 °F 24% 29.86 in 10.0 mi South 8.1 mph - N/A   Clear
3:54 PM 75.9 °F - 37.0 °F 24% 29.84 in 10.0 mi South 11.5 mph - N/A   Clear
4:54 PM 75.0 °F - 37.9 °F 26% 29.81 in 10.0 mi South 11.5 mph - N/A   Clear
5:54 PM 73.0 °F - 37.9 °F 28% 29.78 in 9.0 mi South 10.4 mph - N/A   Clear
6:54 PM 68.0 °F - 39.0 °F 35% 29.78 in 9.0 mi South 5.8 mph - N/A   Clear
7:54 PM 66.0 °F - 41.0 °F 40% 29.78 in 9.0 mi South 6.9 mph - N/A   Clear
8:54 PM 66.9 °F - 42.1 °F 40% 29.78 in 10.0 mi SSW 4.6 mph - N/A   Mostly Cloudy
9:54 PM 66.0 °F - 45.0 °F 47% 29.79 in 10.0 mi SSW 4.6 mph - N/A   Overcast
10:54 PM 62.1 °F - 52.0 °F 70% 29.81 in 8.0 mi East 6.9 mph - 0.01 in Rain Light Rain
11:54 PM 60.1 °F - 51.1 °F 72% 29.79 in 10.0 mi NNE 4.6 mph - 0.01 in   Mostly Cloudy